• Em Portugal
  • Lista de países
  • Para 7 dias
  • Temperatura da água
  • Mapas de satélite
  • Mapa do tempo
  • Widgets de tempo
  • user-avatar
    Iniciar Sessão

    Previsão horária em Liège

    Hoje, 16 Outubro, Terça-feira

    Tempo Temperatura Precipitação Vento Pressão Humidade
    00:00 +16°C° 0 mm 1 m/s 753 mmHg 72%
    01:00 +16°C° 0 mm 1 m/s 753 mmHg 72%
    02:00 +16°C° 0 mm 1 m/s 753 mmHg 71%
    03:00 +15°C° 0 mm 1 m/s 753 mmHg 71%
    04:00 +15°C° 0 mm 1 m/s 754 mmHg 71%
    05:00 +15°C° 0 mm 1 m/s 754 mmHg 71%
    06:00 +15°C° 0 mm 1 m/s 754 mmHg 71%
    07:00 +18°C° 0 mm 1 m/s 754 mmHg 67%
    08:00 +20°C° 0 mm 1 m/s 754 mmHg 62%
    09:00 +22°C° 0 mm 1 m/s 754 mmHg 57%
    10:00 +23°C° 0 mm 1 m/s 754 mmHg 53%
    11:00 +25°C° 0 mm 2 m/s 754 mmHg 49%
    12:00 +26°C° 0 mm 2 m/s 755 mmHg 45%
    13:00 +26°C° 0 mm 2 m/s 754 mmHg 48%
    14:00 +26°C° 0 mm 2 m/s 754 mmHg 50%
    15:00 +25°C° 0 mm 1 m/s 754 mmHg 53%
    16:00 +23°C° 0 mm 1 m/s 754 mmHg 58%
    17:00 +21°C° 0 mm 1 m/s 754 mmHg 63%
    18:00 +19°C° 0 mm 1 m/s 754 mmHg 69%
    19:00 +19°C° 0 mm 1 m/s 754 mmHg 71%
    20:00 +17°C° 0 mm 2 m/s 755 mmHg 72%
    21:00 +17°C° 0 mm 2 m/s 755 mmHg 74%
    22:00 +16°C° 0 mm 2 m/s 755 mmHg 75%
    23:00 +16°C° 0 mm 2 m/s 755 mmHg 76%

    Amanhã, 17 Outubro, Quarta-feira

    Tempo Temperatura Precipitação Vento Pressão Humidade
    00:00 +16°C° 0 mm 2 m/s 755 mmHg 77%
    01:00 +15°C° 0 mm 2 m/s 755 mmHg 77%
    02:00 +15°C° 0 mm 1 m/s 755 mmHg 78%
    03:00 +15°C° 0 mm 1 m/s 754 mmHg 79%
    04:00 +14°C° 0 mm 1 m/s 754 mmHg 80%
    05:00 +14°C° 0 mm 1 m/s 755 mmHg 81%
    06:00 +14°C° 0 mm 1 m/s 755 mmHg 83%
    07:00 +14°C° 0 mm 0 m/s 755 mmHg 77%
    08:00 +16°C° 0 mm 0 m/s 755 mmHg 71%
    09:00 +18°C° 0 mm 0 m/s 755 mmHg 65%
    10:00 +19°C° 0 mm 0 m/s 755 mmHg 61%
    11:00 +21°C° 0 mm 0 m/s 755 mmHg 57%
    12:00 +22°C° 0 mm 0 m/s 754 mmHg 53%
    13:00 +24°C° 0 mm 1 m/s 754 mmHg 55%
    14:00 +23°C° 0 mm 1 m/s 754 mmHg 57%
    15:00 +23°C° 0 mm 1 m/s 754 mmHg 59%
    16:00 +21°C° 0 mm 1 m/s 754 mmHg 66%
    17:00 +20°C° 0 mm 1 m/s 754 mmHg 72%
    18:00 +17°C° 0 mm 2 m/s 754 mmHg 78%
    19:00 +16°C° 0 mm 1 m/s 755 mmHg 81%
    20:00 +16°C° 0 mm 1 m/s 755 mmHg 84%
    21:00 +15°C° 0 mm 1 m/s 755 mmHg 87%
    22:00 +15°C° 0 mm 1 m/s 755 mmHg 89%
    23:00 +14°C° 0 mm 1 m/s 755 mmHg 90%

    Depois de amanhã, 18 Outubro, Quinta-feira

    Tempo Temperatura Precipitação Vento Pressão Humidade
    00:00 +14°C° 0 mm 1 m/s 755 mmHg 91%
    01:00 +14°C° 0 mm 1 m/s 755 mmHg 92%
    02:00 +14°C° 0 mm 1 m/s 755 mmHg 93%
    03:00 +13°C° 0 mm 1 m/s 756 mmHg 94%
    04:00 +13°C° 0 mm 1 m/s 756 mmHg 95%
    05:00 +13°C° 0 mm 1 m/s 756 mmHg 96%
    06:00 +13°C° 0 mm 2 m/s 756 mmHg 96%
    07:00 +14°C° 0 mm 2 m/s 756 mmHg 92%
    08:00 +16°C° 0 mm 2 m/s 756 mmHg 87%
    09:00 +17°C° 0 mm 2 m/s 756 mmHg 82%
    10:00 +18°C° 0 mm 2 m/s 757 mmHg 77%
    11:00 +19°C° 0 mm 3 m/s 757 mmHg 73%
    12:00 +20°C° 0 mm 3 m/s 757 mmHg 68%
    13:00 +20°C° 0 mm 3 m/s 756 mmHg 69%
    14:00 +20°C° 0 mm 3 m/s 756 mmHg 70%
    15:00 +20°C° 0 mm 4 m/s 756 mmHg 71%
    16:00 +19°C° 0 mm 3 m/s 756 mmHg 77%
    17:00 +17°C° 0 mm 3 m/s 757 mmHg 83%
    18:00 +16°C° 0 mm 3 m/s 757 mmHg 89%
    19:00 +14°C° 0 mm 3 m/s 757 mmHg 91%
    20:00 +15°C° 0 mm 2 m/s 757 mmHg 92%
    21:00 +14°C° 0 mm 2 m/s 758 mmHg 93%
    22:00 +14°C° 0 mm 2 m/s 758 mmHg 93%
    23:00 +13°C° 0 mm 2 m/s 758 mmHg 94%

    19 Outubro, Sexta-feira

    Tempo Temperatura Precipitação Vento Pressão Humidade
    00:00 +13°C° 0 mm 2 m/s 758 mmHg 94%
    01:00 +12°C° 0 mm 2 m/s 758 mmHg 95%
    02:00 +12°C° 0 mm 2 m/s 758 mmHg 95%
    03:00 +12°C° 0 mm 1 m/s 758 mmHg 96%
    04:00 +12°C° 0 mm 1 m/s 758 mmHg 96%
    05:00 +12°C° 0 mm 1 m/s 758 mmHg 96%
    06:00 +12°C° 0 mm 1 m/s 758 mmHg 96%
    07:00 +13°C° 0 mm 1 m/s 758 mmHg 90%
    08:00 +15°C° 0 mm 1 m/s 758 mmHg 85%
    09:00 +16°C° 0 mm 1 m/s 758 mmHg 79%
    10:00 +19°C° 0 mm 1 m/s 758 mmHg 74%
    11:00 +20°C° 0 mm 1 m/s 758 mmHg 68%
    12:00 +20°C° 0 mm 2 m/s 758 mmHg 62%
    13:00 +20°C° 0 mm 2 m/s 758 mmHg 64%
    14:00 +20°C° 0 mm 2 m/s 758 mmHg 65%
    15:00 +20°C° 0 mm 2 m/s 758 mmHg 66%
    16:00 +18°C° 0 mm 2 m/s 758 mmHg 73%
    17:00 +16°C° 0 mm 2 m/s 758 mmHg 81%
    18:00 +14°C° 0 mm 2 m/s 758 mmHg 89%
    19:00 +14°C° 0 mm 1 m/s 759 mmHg 90%
    20:00 +14°C° 0 mm 1 m/s 759 mmHg 91%
    21:00 +13°C° 0 mm 1 m/s 759 mmHg 91%
    22:00 +13°C° 0 mm 1 m/s 759 mmHg 92%
    23:00 +13°C° 0 mm 1 m/s 759 mmHg 92%

    20 Outubro, Sábado

    Tempo Temperatura Precipitação Vento Pressão Humidade
    00:00 +13°C° 0 mm 1 m/s 759 mmHg 92%
    01:00 +13°C° 0 mm 1 m/s 760 mmHg 91%
    02:00 +13°C° 0 mm 1 m/s 760 mmHg 91%
    03:00 +13°C° 0 mm 2 m/s 760 mmHg 90%
    04:00 +12°C° 0 mm 2 m/s 760 mmHg 90%
    05:00 +10°C° 0 mm 2 m/s 761 mmHg 90%
    06:00 +10°C° 0 mm 2 m/s 761 mmHg 91%
    07:00 +12°C° 0 mm 2 m/s 761 mmHg 84%
    08:00 +13°C° 0 mm 2 m/s 762 mmHg 78%
    09:00 +14°C° 0 mm 2 m/s 762 mmHg 72%
    10:00 +15°C° 0 mm 2 m/s 762 mmHg 66%
    11:00 +16°C° 0 mm 2 m/s 762 mmHg 60%
    12:00 +17°C° 0 mm 2 m/s 762 mmHg 55%
    13:00 +17°C° 0 mm 2 m/s 762 mmHg 55%
    14:00 +17°C° 0 mm 2 m/s 762 mmHg 55%
    15:00 +17°C° 0 mm 2 m/s 762 mmHg 55%
    16:00 +15°C° 0 mm 2 m/s 762 mmHg 61%
    17:00 +13°C° 0 mm 2 m/s 762 mmHg 67%
    18:00 +11°C° 0 mm 1 m/s 763 mmHg 73%
    19:00 +11°C° 0 mm 1 m/s 763 mmHg 76%
    20:00 +10°C° 0 mm 1 m/s 763 mmHg 78%
    21:00 +10°C° 0 mm 1 m/s 763 mmHg 81%
    22:00 +8°C° 0 mm 0 m/s 763 mmHg 83%
    23:00 +8°C° 0 mm 0 m/s 763 mmHg 85%

    21 Outubro, Domingo

    Tempo Temperatura Precipitação Vento Pressão Humidade
    00:00 +8°C° 0 mm 0 m/s 763 mmHg 87%
    01:00 +8°C° 0 mm 0 m/s 763 mmHg 88%
    02:00 +8°C° 0 mm 0 m/s 763 mmHg 89%
    03:00 +7°C° 0 mm 0 m/s 763 mmHg 90%
    04:00 +7°C° 0 mm 0 m/s 763 mmHg 90%
    05:00 +7°C° 0 mm 0 m/s 763 mmHg 91%
    06:00 +7°C° 0 mm 0 m/s 763 mmHg 91%
    07:00 +9°C° 0 mm 0 m/s 763 mmHg 85%
    08:00 +11°C° 0 mm 0 m/s 763 mmHg 79%
    09:00 +13°C° 0 mm 0 m/s 763 mmHg 72%
    10:00 +14°C° 0 mm 0 m/s 763 mmHg 67%
    11:00 +16°C° 0 mm 1 m/s 762 mmHg 62%
    12:00 +19°C° 0 mm 1 m/s 762 mmHg 58%
    13:00 +18°C° 0 mm 1 m/s 762 mmHg 59%
    14:00 +18°C° 0 mm 1 m/s 761 mmHg 60%
    15:00 +17°C° 0 mm 2 m/s 761 mmHg 61%
    16:00 +15°C° 0 mm 1 m/s 761 mmHg 69%
    17:00 +13°C° 0 mm 1 m/s 761 mmHg 76%
    18:00 +12°C° 0 mm 1 m/s 761 mmHg 84%
    19:00 +11°C° 0 mm 1 m/s 761 mmHg 85%
    20:00 +11°C° 0 mm 1 m/s 761 mmHg 86%
    21:00 +11°C° 0 mm 1 m/s 761 mmHg 88%
    22:00 +11°C° 0 mm 1 m/s 761 mmHg 88%
    23:00 +11°C° 0 mm 1 m/s 761 mmHg 88%
    Mostrar mais